EW3553 Weather Reports


time (UTC)temp
C
wind
direction
speed
KPH
gust
KPH
rain 1hr
cm
rain 24hr
cm
rain mn
cm
humidity
%
barometer
mb
20260503050029 10 27 1.6 9.7 0.00 0.03 0.00 54 1010.6
20260503044523 10 324 4.8 12.9 0.00 0.03 0.00 53 1010.6
20260503043036 11 17 3.2 14.5 0.00 0.03 0.00 54 1010.5
20260503041519 11 34 4.8 16.1 0.00 0.03 0.00 57 1010.6
20260503040016 11 29 3.2 12.9 0.00 0.03 0.00 57 1010.6
20260503034511 11 34 3.2 14.5 0.00 0.03 0.03 56 1010.5
20260503033016 11 33 1.6 16.1 0.00 0.03 0.03 56 1010.5
20260503031503 11 41 3.2 9.7 0.00 0.03 0.03 56 1010.4
20260503030103 11 36 3.2 19.3 0.00 0.03 0.03 54 1010.5
20260503024554 11 11 3.2 12.9 0.00 0.03 0.03 52 1010.4
20260503023058 11 360 3.2 12.9 0.00 0.03 0.03 51 1010.4
20260503021556 11 350 3.2 9.7 0.00 0.03 0.03 52 1010.6
20260503020050 11 117 1.6 4.8 0.00 0.03 0.03 57 1010.7
20260503014543 10 119 0.0 1.6 0.00 0.03 0.03 73 1010.7
20260503013036 11 119 0.0 1.6 0.00 0.03 0.03 79 1010.7
20260503011532 11 119 0.0 4.8 0.00 0.03 0.03 79 1010.6
20260503010028 11 117 1.6 4.8 0.00 0.03 0.03 78 1010.5
20260503004523 11 117 1.6 4.8 0.00 0.03 0.03 76 1010.3
20260503003018 12 117 0.0 4.8 0.00 0.03 0.03 74 1010.1
20260503001515 12 117 0.0 3.2 0.00 0.03 0.03 72 1010.1
20260503000011 12 117 0.0 3.2 0.00 0.03 0.03 71 1010.0
20260502234505 13 117 1.6 6.4 0.00 0.03 0.03 70 1009.9
20260502233003 13 117 0.0 9.7 0.00 0.03 0.03 69 1009.8
20260502231557 13 116 1.6 6.4 0.00 0.03 0.03 67 1009.7
20260502230053 15 114 3.2 9.7 0.00 0.03 0.03 59 1009.7
20260502224547 15 29 1.6 8.0 0.00 0.03 0.03 47 1009.5
20260502223044 15 30 1.6 4.8 0.00 0.03 0.03 45 1009.6
20260502221539 15 31 4.8 9.7 0.00 0.03 0.03 45 1009.4
20260502220037 15 24 6.4 12.9 0.00 0.03 0.03 50 1009.5
20260502214533 15 19 6.4 17.7 0.00 0.03 0.03 52 1009.6
20260502213046 16 91 3.2 12.9 0.00 0.03 0.03 49 1009.4
20260502211530 16 36 1.6 12.9 0.00 0.03 0.03 48 1009.1
20260502210025 16 331 1.6 8.0 0.00 0.03 0.03 49 1009.1
20260502204532 16 167 4.8 9.7 0.00 0.03 0.03 45 1009.1
20260502203016 16 330 3.2 8.0 0.00 0.03 0.03 47 1009.3
20260502201513 16 278 1.6 12.9 0.00 0.03 0.03 48 1009.6
20260502200008 17 307 1.6 9.7 0.00 0.03 0.03 49 1009.7
20260502194502 16 303 0.0 8.0 0.00 0.03 0.03 51 1009.9
20260502193059 16 302 4.8 16.1 0.00 0.03 0.03 52 1010.2
20260502191602 15 326 3.2 9.7 0.00 0.03 0.03 55 1010.3
20260502190051 15 296 4.8 8.0 0.00 0.03 0.03 57 1010.6
20260502184546 15 285 3.2 11.3 0.00 0.03 0.03 60 1010.7
20260502183047 15 66 1.6 8.0 0.00 0.03 0.03 59 1010.7
20260502181537 15 155 0.0 4.8 0.00 0.03 0.03 64 1010.9
20260502163008 13 333 1.6 6.4 0.00 0.03 0.03 71 1011.5
20260502161501 13 328 1.6 4.8 0.00 0.03 0.03 71 1011.6
20260502160106 13 327 0.0 3.2 0.00 0.03 0.03 74 1011.7
20260502151609 12 71 0.0 3.2 0.00 0.03 0.03 74 1011.8
20260502150125 12 74 1.6 4.8 0.00 0.03 0.03 76 1011.9
20260502123034 10 169 0.0 1.6 0.00 0.03 0.03 92 1012.0
20260502121535 10 169 1.6 6.4 0.00 0.03 0.03 93 1012.1
20260502114534 10 178 0.0 1.6 0.00 0.03 0.03 93 1012.2
20260502113033 10 178 0.0 0.0 0.03 0.03 0.03 92 1012.0
20260502111530 10 178 0.0 1.6 0.03 0.03 0.03 92 1011.7
20260502110032 10 177 0.0 0.0 0.03 0.03 0.03 91 1011.4
20260502104528 10 178 1.6 4.8 0.03 0.03 0.03 89 1011.4
20260502103054 10 178 0.0 0.0 0.00 0.00 0.00 88 1011.8
20260502101533 10 178 0.0 1.6 0.00 0.00 0.00 87 1011.6
20260502071518 10 176 0.0 3.2 0.00 0.00 0.00 83 1011.5
20260502070016 10 176 1.6 4.8 0.00 0.00 0.00 83 1011.7
20260502064513 10 166 0.0 8.0 0.00 0.00 0.00 83 1011.7
20260502063016 10 166 1.6 11.3 0.00 0.00 0.00 82 1011.8
20260502061511 10 190 0.0 4.8 0.00 0.00 0.00 81 1011.9
20260502060009 10 188 0.0 1.6 0.00 0.00 0.00 79 1012.1
20260502054511 10 188 0.0 3.2 0.00 0.00 0.00 79 1012.0
20260502053006 10 188 0.0 4.8 0.00 0.00 0.00 78 1011.7
20260502051505 11 188 0.0 6.4 0.00 0.00 0.00 76 1011.7